STARLINK-32852, 62824

Orbit data source: Space-Track

STARLINK-32852, 62824 is a payload satellite owned by SpaceX/Seattle (US) in LEO that was launched on Fri, 24 Jan 2025 UTC via an FALCON 9 launch vehicle from the Air Force Western Test Range (AFWTR). Payload-class satellites include a variety of spacecraft equipped with specific instruments for various scientific and technological missions. These include communications satellites like Starlink; space stations such as the ISS; scientific satellites like the Hubble; Earth observation satellites from companies like Planet Labs, Umbra, and HawkEye 360; GPS; miniature CubeSats for education and research; and military/defense satellites.

Loading next visibility...
Identifier
62824, 2025-018U
Orbit
LEO
Country
Flag of USUS
Related business
Manufacturer
SpaceX/Seattle
Mission
Operational Commercial Communications
Bus & Motor
STARLINK V2M, Unknown motor
Mass
730 kg wet, ~700 kg dry
Launch date (UTC)
2025-01-24 (2 years ago)
Launch vehicle
FALCON 9
Launch site
Air Force Western Test Range (AFWTR)
Object type
Payload
Rocket body
Debris
Shape & HBR
Box + 2 Pan, 17.7 m
Radar Cross Section
33.884 m², Large (>1 m²)

Expand to show TLE details & history
Last TLE update: 8 hours ago

TLE from 8 hours ago
0 STARLINK-32852
1 62824U 25018U   26237.83335647  .00041885  00000-0  12451-2 0  9998
2 62824  53.1595 243.8423 0001200  88.0933  12.8196 15.34368120  5816
Epoch: 2026-08-25T20:00Z
TLE epoch observation values (Epoch: 2026-08-25T20:00:01.999Z)
Latitude
51.94864°
Longitude
77.58898°
Altitude
468.261 km
Speed
7.639 km/s
True Right ascension
23h 26m 46s
True Declination
51° 46' 28"
Sunlit
Object was in full shadow at epoch
Visualization orbit readout
Latitude
Unknown
Longitude
Unknown
Altitude
Unknown
Speed
Unknown
Apparent Right ascension
Unknown
Apparent Declination
Unknown
Sunlit
N/A
Visualization observer readout
Local Sidereal Time
19:08:09
Azimuth
Unknown
Elevation
Unknown
Doppler factor
Unknown
Orbital elements
Apogee altitude
463.876 km
Perigee altitude
462.234 km
Semi-major axis
6,841.192 km
Eccentricity
0.00012
Inclination
53.1595°
RAAN
243.8423°
Arg. of periapsis
88.0933°
True anomaly
12.82265°
Mean anomaly
12.8196°
Eccentric anomaly
12.82113°
Mean motion
3.83571 °/min
Orbital period
93.85 mins
BSTAR
0.0012451
Loading maneuver chart data...
Computing Atmospheric mass density...
Loading historical data...
Loading historical data...
Loading historical data...
Loading historical data...
Loading historical data...
Loading historical data...
Loading historical data...

Documentation

Showing up to 5 results
|